TimeEST,TemperatureF,Dew PointF,Humidity,Sea Level PressureIn,VisibilityMPH,Wind Direction,Wind SpeedMPH,Gust SpeedMPH,PrecipitationIn,Events,Conditions,WindDirDegrees,DateUTC
12:53 AM,37.0,36.0,96,29.81,9.0,NNW,3.5,-,N/A,,Overcast,330,2013-02-24 05:53:00
1:37 AM,37.4,35.6,93,29.80,10.0,NW,4.6,-,N/A,,Overcast,320,2013-02-24 06:37:00
1:53 AM,37.0,36.0,96,29.81,10.0,NW,4.6,-,N/A,,Overcast,310,2013-02-24 06:53:00
2:03 AM,37.4,35.6,93,29.80,10.0,NW,5.8,-,N/A,,Overcast,320,2013-02-24 07:03:00
2:53 AM,37.9,36.0,93,29.80,10.0,Calm,Calm,-,N/A,,Overcast,0,2013-02-24 07:53:00
3:53 AM,36.0,35.1,97,29.79,10.0,NW,3.5,-,N/A,,Overcast,310,2013-02-24 08:53:00
4:53 AM,35.1,34.0,96,29.77,10.0,NNW,5.8,-,N/A,,Partly Cloudy,330,2013-02-24 09:53:00
5:42 AM,35.6,33.8,93,29.78,10.0,NW,5.8,-,N/A,,Mostly Cloudy,310,2013-02-24 10:42:00
5:53 AM,36.0,34.0,93,29.78,10.0,NNW,3.5,-,N/A,,Overcast,340,2013-02-24 10:53:00
6:49 AM,33.8,33.8,100,29.77,10.0,Calm,Calm,-,N/A,,Scattered Clouds,0,2013-02-24 11:49:00
6:53 AM,34.0,33.1,96,29.78,10.0,North,-9999.0,-,N/A,,Partly Cloudy,0,2013-02-24 11:53:00
7:53 AM,34.0,33.1,96,29.78,5.0,West,3.5,-,N/A,,Partly Cloudy,280,2013-02-24 12:53:00
8:43 AM,39.2,35.6,87,29.78,10.0,NW,4.6,-,N/A,,Mostly Cloudy,310,2013-02-24 13:43:00
8:53 AM,39.9,36.0,86,29.79,10.0,NW,3.5,-,N/A,,Overcast,310,2013-02-24 13:53:00
9:49 AM,44.6,37.4,76,29.78,10.0,NW,8.1,-,N/A,,Scattered Clouds,320,2013-02-24 14:49:00
9:53 AM,44.1,37.0,76,29.78,10.0,NNW,9.2,-,N/A,,Scattered Clouds,330,2013-02-24 14:53:00
10:20 AM,46.4,37.4,71,29.77,10.0,NNW,9.2,-,N/A,,Mostly Cloudy,340,2013-02-24 15:20:00
10:51 AM,44.6,33.8,66,29.78,10.0,NW,10.4,-,N/A,,Mostly Cloudy,320,2013-02-24 15:51:00
10:53 AM,45.0,34.0,65,29.78,10.0,NW,10.4,18.4,N/A,,Mostly Cloudy,320,2013-02-24 15:53:00
11:53 AM,46.0,30.9,56,29.78,10.0,NNW,9.2,-,N/A,,Mostly Cloudy,330,2013-02-24 16:53:00
12:53 PM,46.9,28.9,50,29.77,10.0,NW,8.1,20.7,N/A,,Overcast,310,2013-02-24 17:53:00
1:53 PM,46.0,28.0,50,29.77,10.0,NW,9.2,19.6,N/A,,Overcast,310,2013-02-24 18:53:00
2:53 PM,43.0,28.9,58,29.78,10.0,WNW,15.0,21.9,N/A,,Overcast,300,2013-02-24 19:53:00
3:53 PM,39.9,30.0,68,29.82,10.0,WNW,15.0,21.9,N/A,,Overcast,300,2013-02-24 20:53:00
4:53 PM,37.9,25.0,60,29.86,10.0,NW,15.0,23.0,N/A,,Overcast,310,2013-02-24 21:53:00
5:53 PM,37.0,21.9,54,29.88,10.0,WNW,9.2,16.1,N/A,,Mostly Cloudy,300,2013-02-24 22:53:00
6:53 PM,36.0,21.0,55,29.92,10.0,NW,8.1,17.3,N/A,,Clear,310,2013-02-24 23:53:00
7:53 PM,34.0,21.0,59,29.95,10.0,NW,6.9,-,N/A,,Clear,310,2013-02-25 00:53:00
8:53 PM,35.1,19.9,54,29.97,10.0,NW,12.7,19.6,N/A,,Clear,320,2013-02-25 01:53:00
9:53 PM,33.1,19.9,59,29.98,10.0,NW,8.1,-,N/A,,Clear,320,2013-02-25 02:53:00
10:53 PM,32.0,21.0,64,29.99,10.0,Calm,Calm,-,N/A,,Scattered Clouds,0,2013-02-25 03:53:00
11:53 PM,32.0,21.0,64,29.99,10.0,NNW,6.9,-,N/A,,Clear,330,2013-02-25 04:53:00